| time (UTC) | temp F | wind direction | speed MPH | gust MPH | rain 1hr in | rain 24hr in | rain mn in | humidity % | barometer mb |
| 20260903064126 | 58 | 270 | 10.0 | 15.0 | 0.00 | 0.00 | 0.00 | 71 | 856.8 |
| 20260903063513 | 58 | 270 | 10.0 | 17.0 | 0.00 | 0.00 | 0.00 | 70 | 856.8 |
| 20260903062514 | 58 | 262 | 9.0 | 15.0 | 0.00 | 0.00 | 0.00 | 71 | 856.8 |
| 20260903061127 | 58 | 267 | 10.0 | 15.0 | 0.00 | 0.00 | 0.00 | 71 | 856.6 |
| 20260903060514 | 58 | 273 | 11.0 | 16.0 | 0.00 | 0.00 | 0.00 | 71 | 856.6 |
| 20260903055513 | 57 | 274 | 12.0 | 17.0 | 0.00 | 0.00 | 0.00 | 71 | 856.5 |
| 20260903054126 | 57 | 271 | 12.0 | 17.0 | 0.00 | 0.00 | 0.00 | 72 | 856.5 |
| 20260903053514 | 57 | 268 | 13.0 | 17.0 | 0.00 | 0.00 | 0.00 | 71 | 856.3 |
| 20260903052514 | 57 | 265 | 13.0 | 19.0 | 0.00 | 0.00 | 0.00 | 72 | 856.2 |
| 20260903051127 | 57 | 267 | 13.0 | 17.0 | 0.00 | 0.00 | 0.00 | 72 | 856.1 |
| 20260903050513 | 57 | 272 | 13.0 | 20.0 | 0.00 | 0.00 | 0.00 | 72 | 856.1 |
| 20260903045514 | 57 | 271 | 13.0 | 19.0 | 0.00 | 0.00 | 0.00 | 72 | 856.1 |
| 20260903044126 | 57 | 270 | 13.0 | 17.0 | 0.00 | 0.00 | 0.00 | 72 | 856.1 |
| 20260903043513 | 57 | 272 | 13.0 | 19.0 | 0.00 | 0.00 | 0.00 | 72 | 856.0 |
| 20260903042514 | 57 | 271 | 13.0 | 17.0 | 0.00 | 0.00 | 0.00 | 72 | 856.0 |
| 20260903041126 | 57 | 268 | 13.0 | 16.0 | 0.00 | 0.00 | 0.00 | 72 | 856.1 |
| 20260903040514 | 57 | 270 | 13.0 | 17.0 | 0.00 | 0.00 | 0.00 | 72 | 856.0 |
| 20260903035514 | 57 | 273 | 14.0 | 19.0 | 0.00 | 0.00 | 0.00 | 72 | 856.0 |
| 20260903034513 | 57 | 276 | 14.0 | 20.0 | 0.00 | 0.00 | 0.00 | 73 | 856.0 |
| 20260903033514 | 57 | 272 | 14.0 | 19.0 | 0.00 | 0.00 | 0.00 | 74 | 856.0 |
| 20260903032514 | 57 | 271 | 14.0 | 19.0 | 0.00 | 0.00 | 0.00 | 74 | 856.0 |
| 20260903031127 | 57 | 269 | 14.0 | 18.0 | 0.00 | 0.00 | 0.00 | 73 | 856.0 |
| 20260903030514 | 58 | 271 | 15.0 | 19.0 | 0.00 | 0.00 | 0.00 | 72 | 856.0 |
| 20260903025514 | 58 | 272 | 15.0 | 22.0 | 0.00 | 0.00 | 0.00 | 72 | 856.0 |
| 20260903024514 | 58 | 273 | 15.0 | 22.0 | 0.00 | 0.00 | 0.00 | 70 | 856.0 |
| 20260903023514 | 59 | 270 | 17.0 | 24.0 | 0.00 | 0.00 | 0.00 | 70 | 856.0 |
| 20260903022514 | 59 | 272 | 19.0 | 27.0 | 0.00 | 0.00 | 0.00 | 68 | 856.0 |
| 20260903021126 | 59 | 270 | 17.0 | 26.0 | 0.00 | 0.00 | 0.00 | 67 | 855.9 |
| 20260903020514 | 59 | 268 | 16.0 | 23.0 | 0.00 | 0.00 | 0.00 | 64 | 855.9 |
| 20260903015514 | 60 | 262 | 15.0 | 20.0 | 0.00 | 0.00 | 0.00 | 63 | 856.1 |
| 20260903014126 | 60 | 264 | 15.0 | 22.0 | 0.00 | 0.00 | 0.00 | 61 | 856.1 |
| 20260903013513 | 61 | 260 | 15.0 | 23.0 | 0.00 | 0.00 | 0.00 | 59 | 856.1 |
| 20260903012513 | 61 | 255 | 13.0 | 20.0 | 0.00 | 0.00 | 0.00 | 57 | 856.2 |
| 20260903011127 | 61 | 255 | 14.0 | 20.0 | 0.00 | 0.00 | 0.00 | 57 | 856.2 |
| 20260903010514 | 61 | 249 | 13.0 | 20.0 | 0.00 | 0.00 | 0.00 | 56 | 856.2 |
| 20260903005514 | 61 | 248 | 13.0 | 19.0 | 0.00 | 0.00 | 0.00 | 56 | 856.2 |
| 20260903004127 | 61 | 248 | 13.0 | 18.0 | 0.00 | 0.00 | 0.00 | 57 | 856.3 |
| 20260903003514 | 61 | 235 | 13.0 | 17.0 | 0.00 | 0.00 | 0.00 | 56 | 856.2 |
| 20260903002514 | 61 | 230 | 12.0 | 18.0 | 0.00 | 0.00 | 0.00 | 56 | 856.2 |
| 20260903001526 | 61 | 231 | 13.0 | 18.0 | 0.00 | 0.00 | 0.00 | 56 | 856.2 |
| 20260903000513 | 61 | 232 | 13.0 | 19.0 | 0.00 | 0.00 | 0.00 | 57 | 856.1 |
| 20260902235513 | 61 | 238 | 14.0 | 19.0 | 0.00 | 0.00 | 0.00 | 59 | 856.2 |
| 20260902234127 | 61 | 242 | 13.0 | 18.0 | 0.00 | 0.00 | 0.00 | 57 | 856.3 |
| 20260902233513 | 61 | 240 | 13.0 | 19.0 | 0.00 | 0.00 | 0.00 | 56 | 856.3 |
| 20260902232513 | 61 | 248 | 14.0 | 19.0 | 0.00 | 0.00 | 0.00 | 59 | 856.4 |
| 20260902231514 | 61 | 253 | 14.0 | 18.0 | 0.00 | 0.00 | 0.00 | 61 | 856.4 |
| 20260902230513 | 61 | 249 | 14.0 | 21.0 | 0.00 | 0.00 | 0.00 | 61 | 856.4 |
| 20260902225514 | 61 | 239 | 12.0 | 16.0 | 0.00 | 0.00 | 0.00 | 68 | 856.4 |
| 20260902224127 | 61 | 233 | 10.0 | 14.0 | 0.00 | 0.00 | 0.00 | 67 | 856.5 |
| 20260902223514 | 61 | 223 | 9.0 | 11.0 | 0.00 | 0.00 | 0.00 | 64 | 856.4 |
| 20260902222514 | 62 | 220 | 8.0 | 10.0 | 0.00 | 0.00 | 0.00 | 62 | 856.5 |
| 20260902221127 | 62 | 219 | 7.0 | 9.0 | 0.00 | 0.00 | 0.00 | 62 | 856.5 |
| 20260902220513 | 62 | 219 | 6.0 | 8.0 | 0.00 | 0.00 | 0.00 | 61 | 856.5 |
| 20260902215514 | 63 | 213 | 6.0 | 7.0 | 0.00 | 0.00 | 0.00 | 61 | 856.4 |
| 20260902214127 | 63 | 205 | 5.0 | 6.0 | 0.00 | 0.00 | 0.00 | 61 | 856.4 |
| 20260902213513 | 63 | 215 | 4.0 | 5.0 | 0.00 | 0.00 | 0.00 | 61 | 856.3 |
| 20260902211127 | 63 | 210 | 3.0 | 3.0 | 0.00 | 0.00 | 0.00 | 60 | 856.4 |
| 20260902210514 | 63 | 194 | 3.0 | 3.0 | 0.00 | 0.00 | 0.00 | 60 | 856.4 |
| 20260902205514 | 63 | 177 | 3.0 | 3.0 | 0.00 | 0.00 | 0.00 | 61 | 856.4 |
| 20260902204128 | 63 | 159 | 2.0 | 3.0 | 0.00 | 0.00 | 0.00 | 60 | 856.4 |
| 20260902203513 | 63 | 159 | 2.0 | 3.0 | 0.00 | 0.00 | 0.00 | 60 | 856.4 |
| 20260902202514 | 63 | 134 | 2.0 | 2.0 | 0.00 | 0.00 | 0.00 | 60 | 856.3 |
| 20260902201127 | 63 | 126 | 2.0 | 3.0 | 0.00 | 0.00 | 0.00 | 58 | 856.4 |
| 20260902200514 | 63 | 119 | 3.0 | 4.0 | 0.00 | 0.00 | 0.00 | 58 | 856.3 |
| 20260902195514 | 63 | 116 | 2.0 | 4.0 | 0.00 | 0.00 | 0.00 | 59 | 856.3 |
| 20260902194127 | 62 | 84 | 1.0 | 3.0 | 0.00 | 0.00 | 0.00 | 58 | 856.4 |
| 20260902193514 | 63 | 90 | 1.0 | 4.0 | 0.00 | 0.00 | 0.00 | 57 | 856.4 |
| 20260902192513 | 63 | 63 | 2.0 | 3.0 | 0.00 | 0.00 | 0.00 | 56 | 856.4 |
| 20260902191127 | 63 | 49 | 1.0 | 2.0 | 0.00 | 0.00 | 0.00 | 57 | 856.4 |
| 20260902190513 | 63 | 51 | 2.0 | 2.0 | 0.00 | 0.00 | 0.00 | 58 | 856.4 |
| 20260902185514 | 63 | 65 | 1.0 | 2.0 | 0.00 | 0.00 | 0.00 | 58 | 856.3 |
| 20260902184127 | 63 | 38 | 2.0 | 3.0 | 0.00 | 0.00 | 0.00 | 59 | 856.1 |
| 20260902183514 | 63 | 17 | 2.0 | 3.0 | 0.00 | 0.00 | 0.00 | 60 | 856.1 |
| 20260902182514 | 63 | 5 | 3.0 | 5.0 | 0.00 | 0.00 | 0.00 | 60 | 855.9 |
| 20260902181127 | 63 | 359 | 4.0 | 7.0 | 0.00 | 0.00 | 0.00 | 61 | 855.8 |
| 20260902180514 | 63 | 359 | 5.0 | 7.0 | 0.00 | 0.00 | 0.00 | 61 | 855.8 |
| 20260902175514 | 63 | 359 | 5.0 | 7.0 | 0.00 | 0.00 | 0.00 | 62 | 855.7 |
| 20260902174127 | 63 | 350 | 7.0 | 10.0 | 0.00 | 0.00 | 0.00 | 63 | 855.7 |
| 20260902173513 | 62 | 329 | 7.0 | 10.0 | 0.00 | 0.00 | 0.00 | 62 | 855.6 |
| 20260902172514 | 63 | 318 | 6.0 | 10.0 | 0.00 | 0.00 | 0.00 | 61 | 855.6 |
| 20260902171127 | 63 | 313 | 7.0 | 13.0 | 0.00 | 0.00 | 0.00 | 62 | 855.6 |
| 20260902170514 | 63 | 313 | 7.0 | 11.0 | 0.00 | 0.00 | 0.00 | 61 | 855.5 |
| 20260902165514 | 64 | 304 | 7.0 | 11.0 | 0.00 | 0.00 | 0.00 | 59 | 855.7 |
| 20260902164127 | 64 | 290 | 8.0 | 11.0 | 0.00 | 0.00 | 0.00 | 58 | 855.7 |
| 20260902163514 | 64 | 296 | 8.0 | 12.0 | 0.00 | 0.00 | 0.00 | 58 | 855.6 |
| 20260902162514 | 65 | 307 | 11.0 | 16.0 | 0.00 | 0.00 | 0.00 | 57 | 855.6 |
| 20260902161127 | 65 | 292 | 10.0 | 14.0 | 0.00 | 0.00 | 0.00 | 57 | 855.6 |
| 20260902160513 | 65 | 304 | 11.0 | 15.0 | 0.00 | 0.00 | 0.00 | 57 | 855.8 |
| 20260902155514 | 65 | 302 | 11.0 | 16.0 | 0.00 | 0.00 | 0.00 | 55 | 855.8 |
| 20260902154127 | 65 | 304 | 10.0 | 16.0 | 0.00 | 0.00 | 0.00 | 58 | 855.8 |
| 20260902153514 | 65 | 292 | 9.0 | 13.0 | 0.00 | 0.00 | 0.00 | 57 | 855.8 |
| 20260902152513 | 66 | 302 | 8.0 | 15.0 | 0.00 | 0.00 | 0.00 | 58 | 855.9 |
| 20260902151127 | 65 | 305 | 9.0 | 13.0 | 0.00 | 0.00 | 0.00 | 58 | 855.9 |
| 20260902150514 | 65 | 309 | 7.0 | 14.0 | 0.00 | 0.00 | 0.00 | 57 | 855.9 |
| 20260902145514 | 65 | 310 | 7.0 | 15.0 | 0.00 | 0.00 | 0.00 | 58 | 856.0 |
| 20260902144127 | 65 | 295 | 7.0 | 12.0 | 0.00 | 0.00 | 0.00 | 58 | 855.9 |
| 20260902143513 | 65 | 297 | 8.0 | 13.0 | 0.00 | 0.00 | 0.00 | 57 | 856.2 |
| 20260902142514 | 65 | 309 | 7.0 | 12.0 | 0.00 | 0.00 | 0.00 | 58 | 856.2 |
| 20260902141127 | 65 | 308 | 10.0 | 16.0 | 0.00 | 0.00 | 0.00 | 60 | 856.2 |
| 20260902140514 | 64 | 326 | 10.0 | 15.0 | 0.00 | 0.00 | 0.00 | 58 | 856.1 |
| 20260902135514 | 64 | 313 | 10.0 | 15.0 | 0.00 | 0.00 | 0.00 | 58 | 856.1 |
| 20260902134126 | 65 | 318 | 9.0 | 15.0 | 0.00 | 0.00 | 0.00 | 58 | 856.1 |
| 20260902133514 | 64 | 320 | 10.0 | 15.0 | 0.00 | 0.00 | 0.00 | 59 | 855.9 |
| 20260902132514 | 64 | 323 | 11.0 | 17.0 | 0.00 | 0.00 | 0.00 | 59 | 856.1 |
| 20260902131127 | 64 | 317 | 10.0 | 15.0 | 0.00 | 0.00 | 0.00 | 58 | 856.2 |
| 20260902130514 | 64 | 311 | 6.0 | 12.0 | 0.00 | 0.00 | 0.00 | 58 | 856.2 |
| 20260902125514 | 65 | 323 | 5.0 | 13.0 | 0.00 | 0.00 | 0.00 | 57 | 856.3 |
| 20260902124126 | 65 | 326 | 4.0 | 9.0 | 0.00 | 0.00 | 0.00 | 55 | 856.4 |
| 20260902123514 | 64 | 328 | 9.0 | 17.0 | 0.00 | 0.00 | 0.00 | 57 | 856.3 |
| 20260902122514 | 64 | 319 | 8.0 | 13.0 | 0.00 | 0.00 | 0.00 | 56 | 856.4 |
| 20260902121127 | 65 | 309 | 6.0 | 10.0 | 0.00 | 0.00 | 0.00 | 56 | 856.4 |
| 20260902120513 | 65 | 309 | 5.0 | 11.0 | 0.00 | 0.00 | 0.00 | 56 | 856.4 |
| 20260902115513 | 65 | 309 | 7.0 | 11.0 | 0.00 | 0.00 | 0.00 | 52 | 856.5 |
| 20260902114127 | 65 | 311 | 7.0 | 11.0 | 0.00 | 0.00 | 0.00 | 54 | 856.5 |
| 20260902113514 | 64 | 331 | 6.0 | 11.0 | 0.00 | 0.00 | 0.00 | 56 | 856.6 |
| 20260902112514 | 65 | 325 | 6.0 | 13.0 | 0.00 | 0.00 | 0.00 | 51 | 856.6 |
| 20260902111127 | 65 | 302 | 4.0 | 11.0 | 0.00 | 0.00 | 0.00 | 54 | 856.6 |
| 20260902110514 | 65 | 353 | 3.0 | 7.0 | 0.00 | 0.00 | 0.00 | 56 | 856.7 |
| 20260902105513 | 65 | 312 | 4.0 | 8.0 | 0.00 | 0.00 | 0.00 | 55 | 856.7 |
| 20260902104127 | 65 | 341 | 3.0 | 6.0 | 0.00 | 0.00 | 0.00 | 57 | 856.8 |
| 20260902103514 | 64 | 346 | 4.0 | 6.0 | 0.00 | 0.00 | 0.00 | 60 | 856.8 |
| 20260902102513 | 64 | 321 | 3.0 | 7.0 | 0.00 | 0.00 | 0.00 | 57 | 856.8 |
| 20260902101127 | 66 | 92 | 1.0 | 6.0 | 0.00 | 0.00 | 0.00 | 61 | 857.0 |
| 20260902100514 | 65 | 90 | 0.0 | 6.0 | 0.00 | 0.00 | 0.00 | 59 | 857.0 |
| 20260902095514 | 66 | 348 | 1.0 | 5.0 | 0.00 | 0.00 | 0.00 | 62 | 857.0 |
| 20260902094127 | 66 | 68 | 1.0 | 6.0 | 0.00 | 0.00 | 0.00 | 58 | 857.0 |
| 20260902093514 | 65 | 2 | 2.0 | 5.0 | 0.00 | 0.00 | 0.00 | 62 | 856.9 |
| 20260902092513 | 63 | 39 | 2.0 | 6.0 | 0.00 | 0.00 | 0.00 | 62 | 856.8 |
| 20260902091126 | 64 | 12 | 1.0 | 5.0 | 0.00 | 0.00 | 0.00 | 59 | 856.9 |
| 20260902090514 | 64 | 28 | 2.0 | 8.0 | 0.00 | 0.00 | 0.00 | 62 | 856.9 |
| 20260902084126 | 63 | 18 | 2.0 | 5.0 | 0.00 | 0.00 | 0.00 | 63 | 856.7 |
| 20260902083514 | 62 | 11 | 2.0 | 6.0 | 0.00 | 0.00 | 0.00 | 62 | 856.6 |
| 20260902082514 | 62 | 4 | 2.0 | 5.0 | 0.00 | 0.00 | 0.00 | 65 | 856.6 |
| 20260902081126 | 62 | 2 | 1.0 | 5.0 | 0.00 | 0.00 | 0.00 | 64 | 856.6 |
| 20260902080513 | 62 | 20 | 1.0 | 5.0 | 0.00 | 0.00 | 0.00 | 64 | 856.6 |
| 20260902075514 | 63 | 98 | 2.0 | 7.0 | 0.00 | 0.00 | 0.00 | 64 | 856.5 |
| 20260902074127 | 62 | 78 | 2.0 | 6.0 | 0.00 | 0.00 | 0.00 | 65 | 856.4 |
| 20260902073513 | 61 | 44 | 1.0 | 5.0 | 0.00 | 0.00 | 0.00 | 67 | 856.3 |
| 20260902072514 | 61 | 342 | 0.0 | 5.0 | 0.00 | 0.00 | 0.00 | 65 | 856.3 |
| 20260902071327 | 61 | 86 | 1.0 | 6.0 | 0.00 | 0.00 | 0.00 | 64 | 856.3 |
| 20260902070513 | 60 | 89 | 2.0 | 6.0 | 0.00 | 0.00 | 0.00 | 67 | 856.1 |
| 20260902065513 | 60 | 86 | 1.0 | 6.0 | 0.00 | 0.00 | 0.00 | 64 | 856.1 |